Location: Go�ngahuizen
(53.0821°N, 5.8849°E)
Time: 23:09:14
(UTC+00:00)

Cosmos 2237 Rocket - Pass Details

Date: 09 April 2020
Orbit: 833 x 851 km, 71.0° (Epoch: 03 June)

Event Time Altitude Azimuth Distance (km) Brightness Sun altitude
Rises 23:34:38 0° 328° (NNW) 3,409 6.2 -28.9°
Reaches altitude 10° 23:37:22 10° 338° (NNW) 2,474 5.4 -28.9°
Maximum altitude 23:42:23 31° 40° (NE) 1,450 3.8 -28.9°
Enters shadow 23:45:58 17° 93° (E) 2,039 4.2 -28.9°
